Notices

What's New in latest Release from April 7th, 2021:

- Updated Glossary, including Speed of Maximum Gust, and Total Hourly Precipitation

- Updated national and regional climate services offices contacts and prices information

- Addition of station inventory lists for 1981-2010, 1971-2000, and 1961-1990 Normals.

If you haven't already, please take our survey and provide feedback about our website: https://eccc.sondage-survey.ca/f/LanguageSelection.aspx?s=442ca660-fcf1-47c0-95a9-59707d6fd709

Hourly Data Report for April 24, 2004

TORONTO CITY
ONTARIO

43°40'00.000" N
79°24'00.000" W
112.50 m
6158355
71508
XTO

Download Data

Hourly Data (April 2004)
Hourly Data Report for April 24, 2004
TIME
LST
Temp Definition
°C
Dew Point Definition
°C
Rel Hum Definition
%
Precip. Amount Definition
mm

Wind Dir Definition
10's deg

Wind Spd Definition
km/h
Visibility Definition
km
Stn Press Definition
kPa
Hmdx Definition


Wind Chill Definition


Weather Definition


00:00 7.3 3.1 75   LegendMM LegendMM LegendMM 100.60     LegendNANA
01:00 8.8 4.0 72   LegendMM LegendMM LegendMM 100.68     LegendNANA
02:00 8.5 0.5 57   LegendMM LegendMM LegendMM 100.74     LegendNANA
03:00 7.4 1.2 65   LegendMM LegendMM LegendMM 100.78     LegendNANA
04:00 6.7 1.5 69   LegendMM LegendMM LegendMM 100.86     LegendNANA
05:00 6.1 1.5 72   LegendMM LegendMM LegendMM 100.93     LegendNANA
06:00 6.6 1.7 71   LegendMM LegendMM LegendMM 100.98     LegendNANA
07:00 7.8 1.6 65   LegendMM LegendMM LegendMM 101.09     LegendNANA
08:00 8.6 2.1 64   LegendMM LegendMM LegendMM 101.15     LegendNANA
09:00 9.9 3.1 63   LegendMM LegendMM LegendMM 101.25     LegendNANA
10:00 10.0 2.1 58   LegendMM LegendMM LegendMM 101.32     LegendNANA
11:00 11.1 1.1 50   LegendMM LegendMM LegendMM 101.39     LegendNANA
12:00 10.7 0.6 50   LegendMM LegendMM LegendMM 101.36     LegendNANA
13:00 11.9 0.3 45   LegendMM LegendMM LegendMM 101.33     LegendNANA
14:00 12.7 0.2 42   LegendMM LegendMM LegendMM 101.29     LegendNANA
15:00 12.7 0.3 43   LegendMM LegendMM LegendMM 101.28     LegendNANA
16:00 12.2 -0.2 42   LegendMM LegendMM LegendMM 101.28     LegendNANA
17:00 11.4 -0.5 44   LegendMM LegendMM LegendMM 101.31     LegendNANA
18:00 10.8 -2.2 40   LegendMM LegendMM LegendMM 101.32     LegendNANA
19:00 10.8 -9.6 23   LegendMM LegendMM LegendMM 101.37     LegendNANA
20:00 10.3 -10.3 22   LegendMM LegendMM LegendMM 101.41     LegendNANA
21:00 9.8 -9.1 25   LegendMM LegendMM LegendMM 101.42     LegendNANA
22:00 9.0 -5.6 35   LegendMM LegendMM LegendMM 101.34     LegendNANA
23:00 8.6 -4.9 38   LegendMM LegendMM LegendMM 101.31     LegendNANA

Notes on Data Quality.

Legend

  • E = Estimated
  • M = Missing
  • NA = Not Available*
  • [empty] = Indicates an unobserved value
Date modified: